Flag for China Weather past 2 weeks in Xiamen, Fujian, China

Now
88 °F

Passing clouds.


Feels Like: 100 °F
Forecast: 78 / 92 °F
Wind: 3 mph from Southwest

Location: Xiamen Airport

Current Time: Jul 31, 2015 at 9:30:37 AM

Latest Report: Jul 31, 2015 at 9:00 AM


Visibility: N/A

Pressure: 29.89 "Hg

Humidity: 70%

Dew point: 77 °F

Location of XiamenLocation

Historic Weather in Xiamen — Graph

°F

Xiamen temperature yesterday

Maximum temperature yesterday: 91 °F (at 12:00 PM)
Minimum temperature yesterday: 79 °F (at 4:00 AM)
Average temperature yesterday: 84 °F

Past Weeks' High & Low Weather Summary

 TemperatureHumidityPressure
High95 °F (Jul 28, 1:00 PM)100% (Jul 19, 12:00 PM)29.95 "Hg (Jul 19, 12:00 PM)
Low77 °F (Jul 20, 12:00 AM)41% (Jul 28, 2:00 PM)29.50 "Hg (Jul 16, 2:00 PM)
Average83 °F84%29.75 "Hg
* Reported Jul 16 8:00 AM — Jul 31 8:00 AM, Xiamen, Weather by CustomWeather, © 2015

Note: Actual official high and low records may vary slightly from our data, if they occured in-between our weather recording intervals... More about our weather records

Advertising

Xiamen weather history for previous 24 hours

 ConditionsComfort  
Time TempWeatherWind HumidityBarometerVisibility
8:00 AM
Fri, Jul 31
84 °FPassing clouds.3 mph74%29.89 "HgN/A
7:00 AM82 °FPassing clouds.1 mph89%29.89 "HgN/A
6:00 AM79 °FPassing clouds.1 mph94%29.89 "HgN/A
5:00 AM79 °FClear.1 mph94%29.86 "Hg10 mi
4:00 AM79 °FClear.1 mph94%29.86 "Hg10 mi
3:00 AM79 °FClear.3 mph94%29.86 "Hg10 mi
2:00 AM81 °FClear.3 mph89%29.86 "Hg10 mi
1:00 AM81 °FPassing clouds.6 mph89%29.89 "HgN/A
12:00 AM81 °FClear.6 mph89%29.89 "Hg10 mi
11:00 PM
Thu, Jul 30
81 °FClear.8 mph89%29.89 "Hg10 mi
10:00 PM82 °FPassing clouds.6 mph84%29.86 "HgN/A
9:00 PM82 °FClear.8 mph74%29.86 "Hg10 mi
8:00 PM84 °FClear.6 mph66%29.86 "Hg10 mi
7:00 PM84 °FPassing clouds.6 mph66%29.83 "HgN/A
6:00 PM86 °FPassing clouds.8 mph59%29.83 "HgN/A
5:00 PM88 °FSunny.10 mph59%29.83 "Hg10 mi
4:00 PM90 °FPassing clouds.8 mph59%29.83 "HgN/A
3:00 PM90 °FPassing clouds.10 mph59%29.83 "HgN/A
2:00 PM90 °FPassing clouds.10 mph59%29.86 "HgN/A
1:00 PM91 °FScattered clouds.3 mph56%29.86 "HgN/A
12:00 PM91 °FSunny.3 mph46%29.89 "Hg10 mi
11:00 AM90 °FSunny.3 mph55%29.89 "Hg10 mi
10:00 AM88 °FSunny.3 mph62%29.92 "Hg10 mi
9:00 AM84 °FSunny.1 mph74%29.89 "Hg10 mi
Weather by CustomWeather, © 2015

See weather overviewHow to use our weather pages